DW7306 Palmira PA current weather conditions

sailwx.info

Wind from 018 at 3 knots

Air temperature 15.0° C
Dewpoint 8.5° C

Last reported at 2019-Jul-21 12:00 UTC.
Time now 2019-Jul-21 13:09 UTC

Location: N 08°46' W 082°28'.
View on Google Maps.

See reports from other nearby stations

  
Tides and Currents Weather Stations Pressure Air Temp Water Temp Dewpoint Dewpoint Depression Visibility Wind Speed Wind Dir Waves Ship Positions
date/time (UTC)wind fromknots sea level pressurealtimeterstation pressurevisibilityair tempwater tempwave heightnotes
2019-Jul-21 12:00 018 3 15.0
2019-Jul-21 11:50 032 14.4
2019-Jul-21 11:40 050 1 14.4
2019-Jul-21 11:30 067 5 15.0
2019-Jul-21 11:20 047 14.4
2019-Jul-21 11:10 061 4 14.4
2019-Jul-21 11:00 050 0 14.4
2019-Jul-21 10:50 129 0 15.0
2019-Jul-21 10:40 050 15.6
2019-Jul-21 10:30 031 2 16.1
2019-Jul-21 10:20 009 8 16.1
2019-Jul-21 10:10 027 15.0
2019-Jul-21 10:00 047 2 16.1
2019-Jul-21 09:50 041 3 16.1
2019-Jul-21 09:40 060 3 16.1
2019-Jul-21 09:30 015 10 16.1
2019-Jul-21 09:20 316 6 16.1
2019-Jul-21 09:10 075 8 16.7
2019-Jul-21 09:00 045 6 16.1
2019-Jul-21 08:50 344 4 15.6
2019-Jul-21 08:40 350 1 16.1
2019-Jul-21 08:30 043 4 16.1
2019-Jul-21 08:20 028 10 16.1
2019-Jul-21 08:10 338 9 16.7
2019-Jul-21 08:00 313 10 17.2
2019-Jul-21 07:50 258 5 16.1
2019-Jul-21 07:40 002 3 16.1
2019-Jul-21 07:30 045 2 16.1
2019-Jul-21 07:20 047 1 16.1
2019-Jul-21 07:10 031 6 15.6
2019-Jul-21 07:00 336 5 16.1
2019-Jul-21 06:50 057 3 16.1
2019-Jul-21 06:40 011 6 16.1
2019-Jul-21 06:30 262 9 16.1
2019-Jul-21 06:20 007 6 16.1
2019-Jul-21 06:10 293 3 16.1
2019-Jul-21 06:00 246 2 13.9
2019-Jul-21 05:50 164 14.4
2019-Jul-21 05:40 228 2 15.0
2019-Jul-21 05:30 254 2 15.0
2019-Jul-21 05:20 303 0 14.4
2019-Jul-21 05:10 15.6
2019-Jul-21 05:00 084 5 16.7
2019-Jul-21 04:50 040 4 15.6
2019-Jul-21 04:40 020 3 15.6
2019-Jul-21 04:30 059 8 16.1
2019-Jul-21 04:20 037 4 16.1
2019-Jul-21 04:10 032 6 16.7
2019-Jul-21 04:00 269 2 16.7
2019-Jul-21 03:50 004 6 16.7
2019-Jul-21 03:40 16.1
2019-Jul-21 03:30 018 11 16.1
2019-Jul-21 03:20 337 6 15.6
2019-Jul-21 03:10 029 5 15.6
2019-Jul-21 03:00 001 3 15.6
2019-Jul-21 02:50 027 12 15.6
2019-Jul-21 02:40 024 7 15.6
2019-Jul-21 02:30 018 6 15.6
2019-Jul-21 02:20 033 4 15.6
2019-Jul-21 02:10 15.6
2019-Jul-21 02:00 285 9 16.1
2019-Jul-21 01:50 036 5 16.1
2019-Jul-21 01:40 340 9 16.1
2019-Jul-21 01:30 055 2 16.1
2019-Jul-21 01:20 331 7 16.1
2019-Jul-21 01:10 16.1
2019-Jul-21 01:00 006 5 15.6
2019-Jul-21 00:50 016 10 15.6
2019-Jul-21 00:40 051 5 16.1
2019-Jul-21 00:30 009 7 16.1
2019-Jul-21 00:20 035 4 15.6
2019-Jul-21 00:10 034 4 15.6
2019-Jul-21 00:00 028 4 15.6
2019-Jul-20 23:50 295 3 16.1
2019-Jul-20 23:40 344 4 16.1
2019-Jul-20 23:30 038 4 16.1
2019-Jul-20 23:20 014 4 16.1
2019-Jul-20 23:10 067 2 16.1
2019-Jul-20 23:00 277 2 16.1
2019-Jul-20 22:50 020 8 16.1
2019-Jul-20 22:40 011 9 16.7
2019-Jul-20 22:30 347 2 17.2
2019-Jul-20 22:20 042 5 18.3
2019-Jul-20 22:10 009 7 18.3
2019-Jul-20 22:00 056 4 18.3
2019-Jul-20 21:50 340 4 18.3
2019-Jul-20 21:40 022 10 18.3
2019-Jul-20 21:30 028 4 18.9
2019-Jul-20 21:20 024 1 18.9
2019-Jul-20 21:10 337 3 18.9
2019-Jul-20 21:00 075 2 19.4
2019-Jul-20 20:50 350 1 19.4
2019-Jul-20 20:40 256 3 18.9
2019-Jul-20 20:30 014 8 18.9
2019-Jul-20 20:20 024 20.0
2019-Jul-20 20:10 001 9 19.4
2019-Jul-20 20:00 319 2 20.0
2019-Jul-20 19:50 032 6 19.4
2019-Jul-20 19:40 034 8 19.4
2019-Jul-20 19:30 036 6 19.4
2019-Jul-20 19:20 050 4 19.4
2019-Jul-20 19:10 010 10 18.9
2019-Jul-20 19:00 016 6 19.4
2019-Jul-20 18:50 082 2 19.4
2019-Jul-20 18:40 031 20.0
2019-Jul-20 18:30 063 8 18.9
2019-Jul-20 18:20 020 3 19.4
2019-Jul-20 18:10 029 6 18.9
2019-Jul-20 18:00 046 6 18.3
2019-Jul-20 17:50 043 3 20.0
2019-Jul-20 17:40 057 4 20.0
2019-Jul-20 17:30 027 6 18.9
2019-Jul-20 17:20 017 8 18.3
2019-Jul-20 17:10 008 8 18.3
2019-Jul-20 17:00 053 5 18.9
2019-Jul-20 16:50 18.3
2019-Jul-20 16:40 041 8 gusting 13 17.8
2019-Jul-20 16:30 018 6 17.8
2019-Jul-20 16:09 022 5 18.3
2019-Jul-20 16:00 032 5 18.3
2019-Jul-20 15:50 032 3 17.8
2019-Jul-20 15:39 085 11 16.7
2019-Jul-20 15:29 047 3 17.8
2019-Jul-20 15:20 095 2 16.1
2019-Jul-20 15:09 080 5 16.1
2019-Jul-20 14:59 014 4 16.7
2019-Jul-20 14:49 093 6 15.6
2019-Jul-20 14:40 16.7
2019-Jul-20 14:29 065 4 17.8
2019-Jul-20 14:19 006 13 17.2
2019-Jul-20 14:10 334 5 17.2
2019-Jul-20 14:00 121 6 16.1
2019-Jul-20 13:49 351 4 16.1
2019-Jul-20 13:40 043 5 15.6
2019-Jul-20 13:30 055 2 15.6
2019-Jul-20 13:19 079 5 15.0
2019-Jul-20 13:10 059 3 15.6
2019-Jul-20 13:00 058 1 14.4
2019-Jul-20 12:50 043 3 14.4
2019-Jul-20 12:40 083 4 14.4
2019-Jul-20 12:30 071 4 14.4
2019-Jul-20 12:20 015 1 14.4
2019-Jul-20 12:10 035 9 14.4
2019-Jul-20 12:00 345 7 15.6
2019-Jul-20 11:50 020 6 15.0
2019-Jul-20 11:40 027 1 15.0
2019-Jul-20 11:30 024 5 15.0
2019-Jul-20 11:19 057 1 14.4
2019-Jul-20 11:10 078 4 13.9
2019-Jul-20 11:00 053 6 14.4
2019-Jul-20 10:50 089 6 14.4
2019-Jul-20 10:40 074 14.4
2019-Jul-20 10:30 037 6 16.1
2019-Jul-20 10:20 16.1
2019-Jul-20 10:10 044 6 16.1
2019-Jul-20 10:00 293 5 16.1
2019-Jul-20 09:50 241 4 16.1
2019-Jul-20 09:40 268 9 16.7
2019-Jul-20 09:30 334 8 16.7
2019-Jul-20 09:20 006 11 16.1
2019-Jul-20 09:10 297 6 16.1
2019-Jul-20 09:00 332 2 16.1
2019-Jul-20 08:50 350 7 16.1
2019-Jul-20 08:40 039 6 15.6
2019-Jul-20 08:30 345 7 15.6
2019-Jul-20 08:20 351 3 15.6
2019-Jul-20 08:10 028 10 15.6
2019-Jul-20 08:00 043 3 15.6
2019-Jul-20 07:50 345 3 16.1
2019-Jul-20 07:40 015 3 16.1
2019-Jul-20 07:30 320 6 16.1
2019-Jul-20 07:20 008 9 16.1
2019-Jul-20 07:10 027 4 16.1
2019-Jul-20 07:00 007 5 16.1
2019-Jul-20 06:50 048 4 16.1
2019-Jul-20 06:40 009 2 16.1
2019-Jul-20 06:30 029 6 16.1
2019-Jul-20 06:20 319 6 16.1
2019-Jul-20 06:10 028 4 16.1
2019-Jul-20 06:00 348 10 15.6
2019-Jul-20 05:50 343 11 15.6
2019-Jul-20 05:40 023 6 15.0
2019-Jul-20 05:30 033 8 15.0
2019-Jul-20 05:20 035 2 14.4
2019-Jul-20 05:10 070 3 14.4
2019-Jul-20 05:00 044 15.0
2019-Jul-20 04:50 040 1 15.6
2019-Jul-20 04:40 263 5 16.1
2019-Jul-20 04:30 078 0 14.4
2019-Jul-20 04:20 066 3 15.0
2019-Jul-20 04:10 038 1 16.1
2019-Jul-20 04:00 340 2 16.1
2019-Jul-20 03:50 028 3 16.1
2019-Jul-20 03:40 012 1 16.1
2019-Jul-20 03:30 039 6 16.1
2019-Jul-20 03:20 311 1 16.1
2019-Jul-20 03:10 224 0 16.1
2019-Jul-20 03:00 011 6 16.1
2019-Jul-20 02:50 315 12 16.7
2019-Jul-20 02:40 341 6 16.1
2019-Jul-20 02:30 347 7 16.1
2019-Jul-20 02:20 051 5 16.1
2019-Jul-20 02:10 344 4 16.1
2019-Jul-20 02:00 322 8 16.1
2019-Jul-20 01:50 027 9 16.1
2019-Jul-20 01:40 043 2 15.6
2019-Jul-20 01:30 001 4 15.6
2019-Jul-20 01:20 018 6 15.0
2019-Jul-20 01:10 021 1 14.4
2019-Jul-20 01:00 347 5 15.0
2019-Jul-20 00:50 020 10 14.4
2019-Jul-20 00:40 061 3 15.0
2019-Jul-20 00:30 020 15.0
2019-Jul-20 00:20 14.4
2019-Jul-20 00:10 011 6 15.0
2019-Jul-20 00:00 049 6 15.6
2019-Jul-19 23:50 264 3 15.6
2019-Jul-19 23:40 014 6 15.6
2019-Jul-19 23:30 051 13 16.1
2019-Jul-19 23:20 15.6
2019-Jul-19 23:10 049 3 15.6
2019-Jul-19 23:00 038 3 16.1
2019-Jul-19 22:50 008 6 16.1
2019-Jul-19 22:40 055 4 16.1
2019-Jul-19 22:30 044 6 16.7
2019-Jul-19 22:20 060 4 16.7
2019-Jul-19 22:10 020 2 16.7
2019-Jul-19 22:00 070 3 17.2
2019-Jul-19 21:50 078 17.2
2019-Jul-19 21:40 070 1 16.7
2019-Jul-19 21:30 082 17.2
2019-Jul-19 21:20 178 17.2
2019-Jul-19 21:10 095 0 17.2
2019-Jul-19 21:00 103 17.8
2019-Jul-19 20:50 131 17.2
2019-Jul-19 20:40 155 2 17.2
2019-Jul-19 20:30 075 1 17.8
2019-Jul-19 20:20 085 17.8
2019-Jul-19 20:10 074 18.3
2019-Jul-19 20:00 086 5 17.2
2019-Jul-19 19:50 063 5 17.2
2019-Jul-19 19:40 037 1 17.8
2019-Jul-19 19:30 053 4 17.8
2019-Jul-19 19:20 048 2 18.3
2019-Jul-19 19:10 058 4 18.3
2019-Jul-19 19:00 036 3 18.9
2019-Jul-19 18:50 018 2 19.4
2019-Jul-19 18:40 092 6 18.9
2019-Jul-19 18:30 018 6 18.9
2019-Jul-19 18:20 066 1 20.6
2019-Jul-19 18:10 061 5 18.3
2019-Jul-19 18:00 061 4 18.3
2019-Jul-19 17:50 038 10 18.3
2019-Jul-19 17:40 351 6 19.4
2019-Jul-19 17:30 009 4 18.9
2019-Jul-19 17:20 284 6 18.3
2019-Jul-19 17:10 051 0 18.9
2019-Jul-19 17:00 010 4 16.7
2019-Jul-19 16:50 067 3 16.1
2019-Jul-19 16:40 014 3 17.2
2019-Jul-19 16:30 319 8 16.7
2019-Jul-19 16:20 084 6 18.3
2019-Jul-19 16:10 023 1 18.9
2019-Jul-19 16:00 024 3 18.9
2019-Jul-19 15:50 100 2 18.3
2019-Jul-19 15:40 067 3 18.3
2019-Jul-19 15:30 038 6 17.2
2019-Jul-19 15:20 236 18.3
2019-Jul-19 15:10 062 16.7
2019-Jul-19 15:00 048 3 17.8
2019-Jul-19 14:50 154 17.2
2019-Jul-19 14:40 084 15.6
2019-Jul-19 14:30 103 16.1
2019-Jul-19 14:20 069 17.8
2019-Jul-19 14:10 150 16.7
2019-Jul-19 14:00 179 0 16.1
2019-Jul-19 13:50 195 15.6
2019-Jul-19 13:40 211 15.6
2019-Jul-19 13:30 196 16.1
2019-Jul-19 13:20 113 3 15.6
2019-Jul-19 13:10 043 8 15.0
2019-Jul-19 13:00 079 6 14.4